Regional Weather Roundup
Issued by NWS

Home | Current Version | Previous Version | Graphics & Text | Print | Product List | Glossary On
Versions: 1 2 3 4 5 6 7 8 9 10 11 12 13 14 15 16 17 18 19 20 21 22 23 24 25 26 27 28 29 30 31 32 33 34 35 36 37 38 39 40 41 42 43 44 45 46 47 48 49 50
000
ASUS45 KPSR 151200
RWRAZ

PRELIMINARY ARIZONA REGIONAL HOURLY WEATHER ROUNDUP
NATIONAL WEATHER SERVICE PHOENIX AZ
500 AM MST TUE APR 15 2014

NOTE: FAIR INDICATES FEW OR NO CLOUDS BELOW 12,000 FEET WITH NO
SIGNIFICANT WEATHER AND/OR OBSTRUCTIONS TO VISIBILITY.

AZZ001>003-036-151300-
NORTHWEST ARIZONA

CITY           SKY/WX    TMP DP  RH WIND       PRES   REMARKS
KINGMAN        PTCLDY    44   2  17 SE10      30.05F
6HR MIN TEMP:  40; 6HR MAX TEMP:  50;

$$

AZZ004>008-015-016-018-151300-
NORTH CENTRAL ARIZONA

CITY           SKY/WX    TMP DP  RH WIND       PRES   REMARKS
GRAND CANYON   PTCLDY    17   0  47 CALM      30.18F
6HR MIN TEMP:  16; 6HR MAX TEMP:  27;

WILLIAMS       PTCLDY    30   0  27 SE12      30.24F WCI  21
PRESCOTT       PTCLDY    33  10  38 S7        30.11F WCI  27
6HR MIN TEMP:  33; 6HR MAX TEMP:  47;

FLAGSTAFF      PTCLDY    17   4  56 NE3       30.18F
6HR MIN TEMP:  17; 6HR MAX TEMP:  27;

PAYSON         PTCLDY    43   1  17 CALM      30.13F
PAGE           PTCLDY    42   5  21 SW3       30.14F
6HR MIN TEMP:  41; 6HR MAX TEMP:  48;

$$

AZZ009>014-017-151300-
NORTHEAST ARIZONA

CITY           SKY/WX    TMP DP  RH WIND       PRES   REMARKS
WINSLOW        NOT AVBL
SAINT JOHNS    MOCLDY    32   5  32 S5        30.18F WCI  27
6HR MIN TEMP:  31; 6HR MAX TEMP:  39;

WINDOW ROCK    PTCLDY    20   2  45 CALM      30.20F
6HR MIN TEMP:  16; 6HR MAX TEMP:  32;

SHOW LOW       PTCLDY    27   1  33 SW5       30.20F WCI  21
$$

AZZ023-151300-
GREATER PHOENIX AREA

CITY           SKY/WX    TMP DP  RH WIND       PRES   REMARKS
PHOENIX        CLEAR     61  26  26 CALM      29.92F
6HR MIN TEMP:  60; 6HR MAX TEMP:  73;

LUKE AFB       NOT AVBL
6HR MIN TEMP:  53; 6HR MAX TEMP:  67;

DEER VALLEY    CLEAR     58   7  13 CALM      29.94F
6HR MIN TEMP:  55; 6HR MAX TEMP:  68;

SCOTTSDALE     CLEAR     62  12  14 CALM      29.95F
6HR MIN TEMP:  62; 6HR MAX TEMP:  72;

MESA-GATEWAY   PTCLDY    54  21  28 SE6       29.97S
$$

AZZ027-028-151300-
SOUTHWEST MARICOPA COUNTY AND PINAL COUNTY

CITY           SKY/WX    TMP DP  RH WIND       PRES   REMARKS
CASA GRANDE    CLEAR     52  12  20 N8        29.95S
6HR MIN TEMP:  52; 6HR MAX TEMP:  64;

$$

AZZ503-504-507>509-151300-
SOUTHEAST ARIZONA

CITY           SKY/WX    TMP DP  RH WIND       PRES   REMARKS
TUCSON         CLEAR     52   7  16 S8        30.00F
6HR MIN TEMP:  49; 6HR MAX TEMP:  65;

DAVIS-MONTHAN  CLEAR     52   6  15 SE9       29.98F
6HR MIN TEMP:  52; 6HR MAX TEMP:  61;

NOGALES        CLEAR     45   7  21 NE5       30.02F
6HR MIN TEMP:  43; 6HR MAX TEMP:  60;

SIERRA VISTA   CLEAR     46   1  15 CALM      30.08F
SAFFORD        CLEAR     51  15  23 SE12      30.12S
6HR MIN TEMP:  51; 6HR MAX TEMP:  63;

$$

AZZ020-021-025-026-031-151300-
SOUTHWEST ARIZONA

CITY           SKY/WX    TMP DP  RH WIND       PRES   REMARKS
YUMA           PTCLDY    61  21  21 CALM      29.90F
6HR MIN TEMP:  60; 6HR MAX TEMP:  69;

$$

CAZ031-033-041-043-047-048-061-151300-
SOUTHERN CALIFORNIA

CITY           SKY/WX    TMP DP  RH WIND       PRES   REMARKS
DOWNTOWN L.A.  CLOUDY    56  53  90 CALM      29.97F FOG
6HR MIN TEMP:  55; 6HR MAX TEMP:  62;

L.A. AIRPORT     N/A     57  55  94 CALM      29.98F FOG
6HR MIN TEMP:  56; 6HR MAX TEMP:  60;

SAN DIEGO      CLOUDY    60  56  87 NW5       29.98F FOG
6HR MIN TEMP:  60; 6HR MAX TEMP:  64;

BURBANK        CLEAR     58  51  78 S3        29.97S
6HR MIN TEMP:  58; 6HR MAX TEMP:  68;

ONTARIO        PTCLDY    60  39  45 CALM      29.97F
6HR MIN TEMP:  59; 6HR MAX TEMP:  69;

RIVERSIDE      CLEAR     58  39  49 CALM      29.97S
6HR MIN TEMP:  56; 6HR MAX TEMP:  68;

PALM SPRINGS   PTCLDY    69  28  21 W5        29.94F
6HR MIN TEMP:  65; 6HR MAX TEMP:  73;

EL CENTRO NAS  CLEAR     59  18  20 W6        29.90F
6HR MIN TEMP:  56; 6HR MAX TEMP:  65;

IMPERIAL       CLEAR     57  27  31 W7        29.90F
6HR MIN TEMP:  53; 6HR MAX TEMP:  64;

BLYTHE         PTCLDY    59   5  11 SE3       29.93F
6HR MIN TEMP:  56; 6HR MAX TEMP:  69;

$$

NVZ020-UTZ003-151300-
SOUTHERN NEVADA-UTAH

CITY           SKY/WX    TMP DP  RH WIND       PRES   REMARKS
LAS VEGAS      NOT AVBL
SALT LAKE CITY MOCLDY    46  21  37 S20       30.05F
6HR MIN TEMP:  40; 6HR MAX TEMP:  46;

$$

NMZ009-TXZ055-151300-
NEW MEXICO-WEST TEXAS

CITY           SKY/WX    TMP DP  RH WIND       PRES   REMARKS
ALBUQUERQUE    CLEAR     34  11  38 E3        30.21S
6HR MIN TEMP:  34; 6HR MAX TEMP:  46;

EL PASO        CLEAR     40  15  36 CALM      30.24S
6HR MIN TEMP:  39; 6HR MAX TEMP:  46;

$$


........................KEY........................
SKY/WX - SKY CONDITION/WEATHER
TMP    - TEMPERATURE IN FAHRENHEIT
DP     - DEW POINT IN FAHRENHEIT
RH     - RELATIVE HUMIDITY IN PERCENT
WIND   - DIRECTION AND SPEED IN MILES PER HOUR (MPH)
VRB    - VARIABLE WIND DIRECTION
PRES   - MEAN SEA LEVEL PRESSURE IN INCHES OF MERCURY
         F - FALLING PRESSURE   R - RISING PRESSURE
         S - STEADY PRESSURE
VSB    - VISIBILITY IN MILES
HX     - HEAT INDEX IN FAHRENHEIT
WCI    - WIND CHILL INDEX IN FAHRENHEIT
TC     - TEMPERATURE IN CELSIUS WHICH IS ALSO KNOWN AS
         TEMPERATURE IN CENTIGRADE
AFB    - AIR FORCE BASE
         LUKE AFB IS LUKE AIR FORCE BASE
         DAVIS-MONTHAN IS DAVIS-MONTHAN AIR FORCE BASE
NAS    - NAVAL AIR STATION
         EL CENTRO NAS IS EL CENTRO NAVAL AIR STATION
N/A    - NOT AVAILABLE



USA.gov is the U.S. government's official web portal to all federal, state and local government web resources and services.